Flag for Canada Weather past 2 weeks in Cornwall, Ontario, Canada

Now
51 °F

Cool.


Feels Like: 47 °F
Forecast: 43 / 65 °F
Wind: 10 mph from West

Location: St Anicet

Current Time: Sep 22, 2014 at 9:07:19 PM

Latest Report: Sep 22, 2014 at 8:00 PM


Visibility: N/A

Pressure: 30.03 "Hg

Humidity: 66%

Dew point: 40 °F

Location of CornwallLocation

Historic Weather in Cornwall — Graph

°F

Cornwall temperature yesterday

Maximum temperature yesterday: 75 °F (at 5:00 PM)
Minimum temperature yesterday: 62 °F (at 11:00 PM)
Average temperature yesterday: 70 °F

Past Weeks' High & Low Weather Summary

 TemperatureHumidityPressure
High78 °F (Sep 8, 4:00 PM)100% (Sep 10, 10:00 PM)30.42 "Hg (Sep 10, 10:00 PM)
Low30 °F (Sep 19, 7:00 AM)34% (Sep 19, 2:00 PM)29.50 "Hg (Sep 21, 5:00 PM)
Average56 °F78%30.05 "Hg
* Reported Sep 7 8:00 PM — Sep 22 8:00 PM, Cornwall, Weather by CustomWeather, © 2014

Note: Actual official high and low records may vary slightly from our data, if they occured in-between our weather recording intervals... More about our weather records

Advertising

Cornwall weather history for previous 24 hours

 ConditionsComfort  
Time TempWeatherWind HumidityBarometerVisibility
8:00 PM
Sep 22
51 °FCool.10 mph66%30.03 "HgN/A
7:00 PM51 °FCool.12 mph68%30.00 "HgN/A
6:00 PM52 °FCool.9 mph66%29.97 "HgN/A
5:00 PM51 °FCool.13 mph63%29.95 "HgN/A
4:00 PM51 °FCool.15 mph64%29.93 "HgN/A
3:00 PM51 °FCool.13 mph69%29.90 "HgN/A
2:00 PM51 °FCool.13 mph68%29.88 "HgN/A
1:00 PM52 °FCool.13 mph68%29.86 "HgN/A
12:00 PM51 °FCool.15 mph70%29.85 "HgN/A
11:00 AM50 °FCool.15 mph76%29.83 "HgN/A
10:00 AM50 °FCool.13 mph74%29.80 "HgN/A
9:00 AM50 °FCool.14 mph79%29.76 "HgN/A
8:00 AM50 °FCool.13 mph85%29.72 "HgN/A
7:00 AM49 °FCool.13 mph89%29.69 "HgN/A
6:00 AM49 °FCool.14 mph88%29.65 "HgN/A
5:00 AM50 °FCool.13 mph89%29.61 "HgN/A
4:00 AM51 °FCool.12 mph92%29.58 "HgN/A
3:00 AM54 °FCool.10 mph84%29.56 "HgN/A
2:00 AM55 °FCool.12 mph91%29.55 "HgN/A
1:00 AM57 °FCool.12 mph92%29.54 "HgN/A
12:00 AM59 °FCool.10 mph93%29.53 "HgN/A
11:00 PM
Sep 21
62 °FMild.9 mph90%29.52 "HgN/A
10:00 PM65 °FMild.6 mph90%29.52 "HgN/A
9:00 PM66 °FMild.3 mph84%29.52 "HgN/A
Weather by CustomWeather, © 2014

See weather overviewHow to use our weather pages